Lid_Strength_Index
5 5 5 4 4 3 4 3 2 2 2 2 2 2 2 2 0 -2 -2 -2 -2 -2 -2 -1 -1 -1 1 6 6 3 2 -0 0 2 3 7 8 8 11 11 11 12 11 9 9 8 8
5 5 5 4 4 4 4 3 3 2 2 3 2 2 2 1 -2 -2 -2 -2 -1 -1 -2 -2 -1 -1 3 9 1 2 3 1 1 2 4 6 8 7 9 10 11 10 10 10 9 9 9
6 5 5 4 4 4 4 4 3 3 3 3 3 2 2 -1 -1 -1 -2 -2 -1 -1 -1 -1 -1 1 5 6 1 2 2 4 2 2 5 6 7 9 8 11 9 10 11 11 10 10 10
5 5 4 4 4 4 4 3 4 3 3 3 3 2 1 -1 -1 -1 -2 -1 -1 -1 -1 -1 -1 2 7 1 0 2 3 4 3 3 4 6 6 8 9 9 11 12 11 14 12 11 10
5 4 4 4 4 4 4 4 3 3 3 2 2 2 -1 -1 -1 -1 -1 -1 -1 -1 -1 0 4 6 8 1 3 2 3 5 4 5 5 5 7 10 10 12 13 14 15 15 14 12 12
5 4 3 4 3 4 4 4 3 3 3 2 2 0 -1 -1 -1 -1 -1 -1 -0 0 1 2 3 6 5 6 3 3 3 3 5 6 7 8 10 12 13 12 17 17 17 15 14 12 13
5 4 3 3 3 4 4 3 3 2 2 2 2 -1 -1 -1 -1 -1 1 4 7 7 5 7 8 7 6 3 2 4 4 5 5 7 11 10 13 14 13 11 11 14 16 15 15 14 13
5 4 3 3 4 4 3 3 2 2 2 2 1 -1 -1 -1 -1 -1 2 6 7 7 11 6 5 5 4 3 7 5 4 7 8 11 10 11 14 12 12 12 12 14 14 16 15 15 14
5 4 4 4 4 4 3 2 2 1 2 2 1 -1 -1 -1 -1 1 4 4 2 4 10 9 6 6 5 4 8 7 6 7 10 11 11 13 12 11 12 14 15 14 14 15 16 16 16
5 4 4 4 4 3 2 2 1 1 2 2 1 -1 -0 -1 3 3 4 2 2 3 13 12 10 8 6 5 9 5 5 7 10 12 12 12 11 12 14 14 14 17 14 14 16 16 18
5 4 4 4 4 3 2 2 2 2 2 2 0 -1 -1 0 4 5 3 2 3 5 20 12 10 5 6 8 8 8 6 7 12 13 12 15 12 13 14 13 14 15 14 13 15 17 17
5 4 4 4 4 3 2 2 2 2 2 1 0 -1 0 3 4 3 2 3 6 14 20 14 11 10 10 8 9 7 8 7 9 13 13 14 11 11 13 13 14 14 15 16 17 17 21
5 4 4 4 3 3 2 2 2 2 2 1 0 -1 1 3 5 2 4 7 14 18 12 14 13 10 11 11 11 10 11 12 13 17 17 15 16 13 12 14 13 15 15 20 20 21 21
4 4 4 4 3 3 3 2 2 2 2 1 0 -0 1 3 3 4 6 12 19 16 15 11 11 11 13 11 11 11 12 14 12 14 16 18 19 15 12 13 15 16 17 19 23 23 22
4 4 4 4 3 2 3 2 2 2 2 2 2 5 5 5 4 5 10 16 17 15 14 14 12 14 14 13 12 12 12 13 12 13 16 17 18 14 12 12 13 15 17 17 21 25 22
4 4 4 4 3 2 2 2 2 2 2 3 7 8 7 5 6 8 13 17 14 12 13 13 15 13 15 13 14 13 13 12 13 12 12 15 18 15 14 12 13 14 15 17 18 25 25
4 4 3 4 3 3 2 2 2 2 3 4 9 11 6 5 7 11 17 15 13 11 11 14 14 13 13 14 13 14 13 12 11 13 12 14 15 16 14 16 16 16 16 16 17 20 23
5 4 4 4 3 3 2 2 3 3 3 7 11 15 6 5 13 20 14 13 10 11 10 11 12 13 13 12 13 14 14 12 10 12 14 12 15 18 17 15 13 15 15 16 17 21 22
5 4 4 4 4 3 2 3 3 3 5 10 16 13 6 7 16 19 14 11 11 11 12 12 13 12 12 13 14 13 13 10 10 11 13 12 15 19 17 15 15 16 16 14 17 18 21
5 4 4 4 4 3 3 3 3 3 5 10 15 16 13 11 12 14 20 16 15 10 11 11 12 11 12 14 12 13 13 10 10 10 10 11 15 17 19 18 16 17 18 16 15 18 20
5 4 4 4 4 3 3 3 2 3 5 10 15 15 13 19 16 13 13 13 14 14 11 11 13 12 14 16 14 14 12 11 11 10 11 12 16 16 16 17 16 15 16 17 17 15 17
5 5 4 4 4 3 3 3 3 3 5 11 15 16 10 12 10 12 12 16 14 13 12 13 13 12 11 14 13 15 13 13 13 11 12 12 17 16 19 16 16 17 15 15 16 16 18
5 5 5 4 4 4 3 3 3 3 6 11 11 11 12 11 13 15 16 12 12 12 11 11 12 12 12 11 10 10 10 11 11 12 13 14 16 17 19 18 17 20 18 16 15 15 15
5 5 5 4 5 4 4 3 3 3 5 9 10 11 14 16 12 16 12 10 11 12 12 11 10 11 9 7 9 10 10 10 11 11 10 14 15 16 19 20 23 17 17 15 15 14 13
5 5 5 5 4 4 5 5 4 3 3 8 8 10 13 14 13 13 13 11 11 11 11 12 11 10 8 10 16 20 18 17 15 12 12 11 14 18 19 25 19 17 17 16 17 16 14
5 5 4 4 5 5 5 5 4 4 4 7 8 7 9 13 14 10 12 11 16 17 15 13 11 9 9 12 20 25 23 22 19 17 11 12 12 15 20 23 24 18 16 15 15 19 16
6 5 5 4 4 5 5 5 5 4 4 7 8 7 8 14 11 10 13 13 10 13 15 15 10 10 10 16 24 24 24 17 20 20 16 14 15 16 17 19 19 16 15 14 19 17 16
5 5 5 4 4 4 5 5 5 4 4 7 9 8 9 12 13 10 9 10 10 11 15 13 12 11 13 17 17 21 23 19 18 17 15 16 17 16 16 18 19 15 15 16 14 15 17
5 5 5 4 4 4 4 4 4 4 4 7 10 6 7 11 12 9 9 8 9 9 10 11 11 12 11 15 15 18 20 17 19 22 14 16 14 14 14 15 13 13 14 13 14 15 16